Wetbulb
71.64 72.04 71.63 72.09 72.05 71.65 71.38 71.02 71.31 71.58 71.58 71.67 72.41 70.86 71.16 71.01 70.58 70.70 71.08 73.47 74.17 75.25 73.97 74.63 75.47 75.46 75.41 75.55 75.53 75.71 75.40 75.20 75.16 75.04 74.75 74.86 75.56 75.42 75.30 75.62 75.65 75.76 75.20
71.16 71.75 72.09 72.88 72.73 72.19 71.69 71.45 71.29 71.13 71.22 71.55 71.52 71.56 71.84 71.36 71.06 71.22 71.42 71.47 74.59 74.94 74.74 74.46 74.50 73.87 74.10 74.74 74.96 75.47 75.65 75.28 74.96 75.03 75.34 76.11 75.74 75.79 75.54 75.63 75.71 75.77 75.40
71.89 72.87 72.10 72.06 71.95 72.87 72.55 72.70 72.42 71.48 72.47 72.47 72.10 71.99 72.66 71.94 71.81 71.67 71.66 71.09 72.47 74.87 74.28 74.05 74.57 74.53 73.88 73.58 73.81 74.68 75.75 75.80 75.65 75.68 75.70 75.65 75.70 76.28 75.68 75.63 75.88 76.06 75.96
73.42 72.72 72.17 71.95 72.14 72.74 72.08 71.88 70.92 70.28 69.24 70.08 70.20 71.78 71.99 72.90 72.76 72.47 72.04 71.51 71.60 72.29 74.02 73.70 73.83 74.36 73.60 73.69 73.69 74.76 75.20 74.93 75.40 75.14 75.11 75.33 75.22 75.63 75.94 76.24 75.59 75.31 75.51
74.11 72.77 72.66 71.91 72.34 70.49 70.32 68.77 66.49 66.61 68.24 70.85 71.39 71.10 71.31 71.53 72.43 73.53 72.43 72.08 72.05 71.63 70.98 72.25 74.07 73.92 73.25 74.15 73.71 73.98 73.78 75.47 75.58 75.46 75.30 75.36 75.64 75.86 75.79 76.14 75.99 76.11 76.01
74.75 72.07 72.81 72.04 72.47 71.22 67.19 66.52 65.19 66.34 67.27 69.94 71.84 70.48 70.50 70.57 71.20 71.29 72.53 73.13 71.94 71.16 70.86 71.57 71.24 72.39 73.34 73.74 72.44 72.69 72.86 73.49 75.08 75.03 75.03 75.19 75.49 75.28 75.61 75.58 75.81 75.98 75.96
73.57 72.78 72.57 72.30 71.59 67.83 66.42 65.51 64.85 65.04 66.23 68.65 67.50 67.30 68.06 69.63 69.14 69.75 71.24 70.68 71.52 71.49 70.65 71.34 70.98 71.16 72.23 73.09 71.70 71.47 71.74 71.86 72.01 72.33 73.16 74.31 74.93 75.30 75.48 75.28 75.45 75.80 75.90
73.66 73.35 72.31 72.23 69.66 66.16 65.18 65.90 64.54 63.69 65.33 65.03 66.02 64.98 63.10 65.40 66.79 67.94 69.33 70.23 69.73 70.56 70.56 70.77 69.25 66.81 66.36 66.98 68.40 69.80 69.79 70.70 71.13 71.37 71.95 72.72 74.04 74.70 74.94 74.79 74.97 75.42 75.50
73.54 73.81 72.04 70.89 68.71 65.88 66.43 66.69 66.22 63.41 62.83 64.87 65.00 65.90 61.44 60.34 63.50 66.67 66.91 68.81 68.49 68.24 68.63 67.79 65.93 65.07 64.28 64.30 65.45 66.76 68.89 69.72 70.70 71.02 71.37 72.47 74.01 74.92 75.17 75.08 74.92 74.39 74.83
73.36 73.55 72.37 70.01 67.23 65.74 66.37 67.61 67.03 65.05 62.86 61.34 62.40 64.99 66.77 66.33 62.02 60.63 65.41 65.62 66.89 65.76 66.33 66.81 65.19 63.55 61.80 61.52 64.91 66.81 67.49 67.89 68.62 69.89 71.36 72.18 72.87 73.42 73.77 73.57 73.86 74.39 74.54
73.50 73.77 72.48 68.63 67.98 68.14 68.51 66.72 64.99 63.59 63.15 62.33 61.60 61.87 62.11 63.94 63.24 60.72 59.61 61.35 62.14 60.67 61.91 64.28 63.30 61.49 60.30 58.75 57.76 61.68 64.81 65.75 66.73 67.77 68.77 69.55 70.33 71.16 71.60 72.35 73.29 74.40 75.05
72.03 72.57 71.17 70.02 68.77 69.07 68.06 65.91 64.92 63.94 62.62 62.62 61.94 62.35 60.50 61.21 61.40 61.21 59.40 59.24 58.73 57.96 59.00 60.45 61.05 60.94 60.46 58.29 61.83 63.21 63.26 63.49 64.45 65.50 66.53 67.45 68.06 68.51 69.30 70.77 73.34 75.52 75.41
71.45 72.00 70.39 68.94 68.69 69.38 69.31 66.80 63.26 62.56 61.89 60.59 60.25 60.47 59.73 59.49 60.24 61.28 61.42 59.32 57.33 57.45 56.18 57.25 57.58 59.81 61.60 58.18 58.62 61.33 62.32 62.84 62.92 63.67 64.49 65.42 66.10 66.54 67.16 68.13 70.52 73.75 73.69
72.01 71.89 70.79 69.73 68.47 70.14 69.82 66.46 63.61 63.40 60.90 59.91 60.04 58.93 57.57 57.60 58.08 59.62 61.73 59.36 54.99 55.31 54.00 54.94 57.92 57.25 58.07 59.31 60.48 64.04 54.45 62.56 63.57 63.78 64.01 64.50 64.32 64.45 64.79 65.67 66.73 69.41 71.39
72.17 71.79 71.98 69.76 69.73 69.98 68.92 67.25 64.52 62.54 58.99 59.25 59.17 58.58 56.46 56.82 56.74 57.49 60.35 62.04 56.74 52.98 52.19 54.94 55.24 57.81 56.76 56.28 60.39 60.34 55.57 59.43 62.49 63.44 63.40 63.72 64.11 63.84 63.38 63.79 64.52 65.87 67.14
71.80 71.72 72.09 70.13 69.54 69.87 68.42 65.31 62.50 62.32 60.63 59.24 57.97 57.00 56.63 56.52 56.86 58.02 58.32 59.49 59.10 54.96 52.24 54.28 56.12 56.19 57.52 59.80 60.76 59.72 59.55 62.60 61.03 62.39 62.51 62.61 63.10 63.26 63.26 62.80 63.36 64.41 64.63
71.25 71.49 71.74 71.16 69.56 69.32 69.08 64.89 62.76 61.39 60.70 59.35 57.44 55.52 55.13 54.46 55.05 55.61 56.05 56.54 58.21 54.62 52.98 54.03 54.61 55.91 56.40 57.17 58.06 57.59 59.78 57.28 53.63 60.30 62.69 61.95 61.54 61.71 61.87 62.14 62.21 62.47 62.80
71.04 72.17 71.81 71.71 69.59 69.59 67.84 64.56 62.30 61.02 59.84 58.15 57.09 54.52 55.25 56.37 53.45 53.55 54.79 54.30 54.77 53.20 52.45 52.53 54.09 55.48 55.64 56.68 57.58 55.30 56.92 60.01 56.57 60.12 61.80 61.93 61.30 60.82 59.71 59.20 59.06 59.23 59.33
71.44 71.87 71.72 71.26 69.20 69.50 67.84 65.14 63.04 60.72 59.81 57.81 55.81 54.96 57.09 54.99 53.86 53.91 54.26 53.94 53.86 54.77 53.73 53.69 53.51 54.16 53.97 53.95 54.28 54.97 55.04 54.45 57.96 62.01 61.21 61.14 61.71 61.35 60.45 59.43 58.34 57.74 57.14
71.52 71.70 72.00 71.54 69.97 69.83 68.13 65.56 62.43 60.39 59.05 56.64 56.85 57.01 57.07 55.87 55.39 55.14 54.57 54.16 54.30 54.26 53.60 53.68 53.41 53.74 53.23 53.32 52.85 51.46 49.82 52.65 54.65 56.96 57.84 58.92 59.31 60.63 61.10 60.87 60.87 60.72 58.78
72.19 72.21 71.53 70.69 70.16 70.13 67.99 64.41 61.80 60.15 57.60 56.75 56.96 57.47 57.00 59.43 61.43 57.99 57.32 57.05 54.31 53.41 53.23 53.14 52.80 52.62 51.79 49.34 48.27 51.39 48.70 49.95 52.32 52.06 51.94 51.59 49.68 49.37 51.17 54.35 58.12 60.27 59.04
72.17 72.15 71.21 70.60 70.18 70.64 68.11 66.37 63.48 59.94 57.59 57.14 56.62 57.83 58.86 64.39 63.39 64.59 63.50 62.15 58.02 54.73 53.12 53.17 52.46 52.05 51.59 49.85 49.55 49.78 48.42 47.73 46.96 50.72 51.15 50.51 48.82 46.67 48.36 49.09 59.10 59.02 58.08
72.25 72.18 71.87 71.34 70.64 70.51 66.09 65.60 65.42 60.00 57.89 56.61 57.51 57.61 59.13 58.79 62.17 60.46 63.31 63.39 62.52 62.31 60.30 55.44 54.05 53.64 51.62 50.53 48.91 48.19 47.90 47.43 47.93 49.85 48.00 46.79 47.23 46.48 47.72 49.59 56.50 58.23 57.52
73.29 72.95 72.43 71.87 70.70 70.07 65.03 64.67 65.18 59.78 58.00 57.43 57.73 57.65 56.04 55.07 56.12 55.90 53.88 55.22 57.19 58.13 58.35 57.32 55.64 55.04 51.74 51.21 50.48 50.09 49.59 48.55 47.85 48.57 46.28 43.80 45.59 45.93 47.21 48.30 54.47 56.71 56.82
73.12 73.18 73.03 71.90 70.88 70.07 63.57 62.81 62.43 59.00 57.83 58.00 58.52 57.52 55.86 53.69 56.51 58.45 51.65 51.38 52.01 53.67 58.70 60.44 59.05 59.25 58.74 57.30 54.83 51.48 49.20 47.28 45.64 46.37 47.83 44.86 44.20 45.23 45.77 46.99 48.32 54.50 54.75
72.38 72.83 72.08 71.61 68.24 69.69 61.31 61.34 61.64 59.17 57.48 58.65 59.72 58.06 59.74 55.30 57.35 57.36 52.52 52.03 51.15 52.14 56.33 55.21 55.62 57.25 58.09 57.70 60.03 52.61 50.81 47.48 45.57 45.06 46.70 45.91 44.12 45.16 45.28 45.90 46.30 47.82 47.38
MSLP
1017.59 1017.42 1017.44 1017.48 1017.47 1017.53 1017.64 1017.91 1018.00 1017.89 1018.12 1018.25 1018.46 1018.47 1018.36 1018.67 1018.74 1019.00 1019.22 1019.39 1019.45 1019.50 1019.92 1020.18 1020.27 1020.55 1020.78 1020.93 1021.10 1021.25 1021.35 1021.44 1021.51 1021.68 1021.82 1021.95 1022.07 1022.30 1022.38 1022.57 1022.62 1022.79 1023.20
1017.32 1017.19 1017.18 1017.25 1017.39 1017.40 1017.58 1017.60 1017.83 1017.62 1017.75 1017.78 1017.92 1018.18 1017.98 1018.26 1018.44 1018.81 1019.18 1019.21 1019.24 1019.57 1019.82 1019.98 1020.30 1020.55 1020.77 1020.90 1021.09 1021.25 1021.28 1021.32 1021.38 1021.52 1021.71 1021.77 1022.02 1022.10 1022.27 1022.50 1022.62 1022.74 1023.04
1017.26 1017.11 1017.17 1017.07 1017.00 1017.05 1017.17 1017.31 1017.44 1017.55 1017.57 1017.44 1017.66 1017.61 1017.65 1017.79 1018.16 1018.60 1018.88 1019.14 1019.19 1019.40 1019.79 1019.97 1020.25 1020.37 1020.45 1020.74 1020.98 1021.16 1021.13 1021.15 1021.32 1021.44 1021.63 1021.79 1021.95 1022.03 1022.21 1022.37 1022.54 1022.70 1022.84
1016.95 1017.04 1017.10 1017.03 1016.84 1016.65 1016.85 1017.07 1017.48 1017.61 1017.62 1017.61 1017.51 1017.32 1017.40 1017.48 1017.85 1018.18 1018.62 1019.12 1019.41 1019.36 1019.61 1020.05 1020.22 1020.34 1020.42 1020.49 1020.68 1020.89 1020.98 1021.06 1021.25 1021.45 1021.50 1021.70 1021.85 1021.99 1022.09 1022.15 1022.33 1022.56 1022.73
1016.66 1016.72 1016.90 1016.93 1016.79 1016.75 1016.84 1017.17 1017.48 1017.58 1017.77 1017.77 1017.88 1018.05 1017.97 1018.00 1018.17 1018.32 1018.79 1019.07 1019.35 1019.67 1019.92 1020.04 1020.17 1020.31 1020.44 1020.58 1020.71 1020.83 1020.80 1020.73 1020.93 1021.08 1021.25 1021.44 1021.55 1021.71 1021.81 1021.95 1022.07 1022.18 1022.36
1016.50 1016.87 1016.81 1016.85 1016.79 1017.08 1017.31 1017.47 1017.59 1017.79 1017.95 1018.07 1018.34 1018.63 1018.62 1018.78 1018.65 1018.78 1018.82 1019.03 1019.42 1019.73 1019.97 1020.07 1020.41 1020.43 1020.42 1020.52 1020.76 1020.72 1020.71 1020.47 1020.70 1020.88 1021.04 1021.21 1021.32 1021.42 1021.47 1021.57 1021.63 1021.79 1021.96
1016.56 1016.59 1016.71 1016.85 1016.99 1017.33 1017.58 1017.84 1017.97 1018.03 1018.23 1018.47 1018.81 1019.13 1019.23 1019.17 1019.21 1019.31 1019.06 1019.19 1019.39 1019.57 1019.93 1020.14 1020.27 1020.47 1020.44 1020.65 1020.87 1020.91 1020.88 1020.79 1020.77 1020.89 1020.92 1020.96 1020.93 1020.93 1020.98 1021.00 1021.07 1021.17 1021.29
1016.53 1016.58 1016.61 1016.93 1017.12 1017.47 1017.70 1017.92 1018.11 1018.30 1018.51 1018.65 1019.02 1019.35 1019.85 1019.79 1019.63 1019.82 1019.71 1019.61 1019.77 1019.83 1020.16 1020.37 1020.52 1020.73 1020.91 1021.04 1021.03 1021.02 1021.09 1021.03 1020.95 1020.90 1020.84 1020.79 1020.67 1020.46 1020.34 1020.29 1020.30 1020.32 1020.50
1016.49 1016.63 1016.79 1017.05 1017.34 1017.56 1017.77 1018.08 1018.12 1018.23 1018.63 1018.79 1018.78 1018.85 1019.92 1020.32 1020.33 1020.33 1020.37 1020.41 1020.56 1020.65 1020.71 1020.94 1021.19 1021.32 1021.43 1021.54 1021.59 1021.48 1021.35 1021.31 1021.19 1021.03 1020.80 1020.63 1020.38 1020.05 1019.77 1019.53 1019.43 1019.19 1019.58
1016.55 1016.69 1016.90 1017.11 1017.41 1017.55 1017.85 1018.03 1018.07 1018.16 1018.51 1018.88 1018.86 1018.84 1018.85 1019.25 1020.25 1021.12 1021.03 1021.13 1021.15 1021.38 1021.43 1021.33 1021.52 1021.61 1021.75 1021.85 1021.74 1021.65 1021.57 1021.51 1021.42 1021.27 1021.03 1020.70 1020.34 1019.94 1019.53 1019.13 1018.61 1018.35 1018.36
1016.52 1016.76 1016.85 1017.02 1017.43 1017.67 1018.02 1018.03 1018.17 1018.42 1018.61 1018.97 1018.98 1019.17 1019.17 1019.36 1019.75 1020.77 1021.68 1021.89 1021.85 1021.98 1021.90 1021.78 1021.82 1021.88 1021.90 1021.87 1021.92 1021.80 1021.65 1021.60 1021.52 1021.40 1021.20 1020.87 1020.54 1020.08 1019.57 1018.85 1017.89 1016.63 1016.41
1016.66 1016.64 1016.67 1016.99 1017.20 1017.54 1017.97 1018.15 1018.29 1018.67 1018.84 1018.99 1019.12 1019.07 1019.23 1019.59 1019.93 1020.32 1021.27 1021.89 1022.27 1022.53 1022.37 1022.31 1022.21 1022.16 1022.13 1022.09 1021.92 1021.89 1021.87 1021.78 1021.66 1021.55 1021.42 1021.16 1020.75 1020.25 1019.63 1018.68 1017.17 1014.83 1014.82
1016.63 1016.65 1016.64 1017.05 1017.26 1017.31 1017.55 1017.85 1018.29 1018.63 1018.81 1019.03 1019.22 1019.31 1019.17 1019.38 1019.56 1020.01 1020.52 1021.62 1022.37 1022.94 1022.97 1022.74 1022.57 1022.43 1022.29 1022.33 1022.28 1022.09 1022.01 1021.95 1021.87 1021.81 1021.70 1021.43 1021.03 1020.51 1019.91 1019.10 1017.95 1016.65 1016.16
1016.08 1016.37 1016.57 1016.83 1016.97 1017.19 1017.43 1017.75 1018.28 1018.51 1018.60 1018.73 1018.97 1019.12 1019.21 1019.18 1019.37 1019.74 1020.22 1021.04 1022.61 1023.15 1023.19 1022.82 1022.67 1022.67 1022.62 1022.50 1022.41 1022.21 1022.32 1022.15 1022.11 1022.04 1021.88 1021.60 1021.29 1020.86 1020.35 1019.80 1019.00 1018.05 1016.95
1015.89 1016.15 1016.23 1016.69 1016.83 1017.15 1017.46 1017.76 1018.24 1018.74 1018.90 1018.99 1019.11 1019.25 1019.43 1019.44 1019.38 1019.52 1019.76 1020.13 1020.93 1022.93 1023.22 1023.07 1023.08 1022.71 1022.69 1022.56 1022.35 1022.32 1022.43 1022.33 1022.30 1022.31 1022.20 1021.94 1021.62 1021.27 1020.82 1020.35 1019.87 1019.19 1018.55
1015.75 1016.01 1016.26 1016.57 1016.98 1017.32 1017.58 1018.01 1018.37 1018.74 1019.02 1019.26 1019.35 1019.52 1019.70 1019.75 1019.73 1019.72 1019.86 1020.10 1020.57 1021.49 1022.90 1023.13 1023.02 1022.80 1022.65 1022.44 1022.35 1022.35 1022.34 1022.20 1022.37 1022.40 1022.44 1022.28 1021.97 1021.56 1021.33 1020.98 1020.56 1020.25 1019.97
1015.39 1015.71 1016.03 1016.47 1016.88 1017.17 1017.64 1018.03 1018.38 1018.88 1019.18 1019.35 1019.44 1019.55 1019.80 1019.84 1020.01 1020.07 1020.11 1020.25 1020.62 1021.04 1022.17 1022.97 1022.95 1022.80 1022.75 1022.71 1022.59 1022.49 1022.26 1022.21 1022.31 1022.32 1022.38 1022.45 1022.31 1022.01 1021.77 1021.61 1021.33 1021.03 1020.88
1014.77 1015.13 1015.51 1016.06 1016.58 1016.91 1017.33 1017.82 1018.24 1018.71 1019.07 1019.41 1019.50 1019.72 1019.89 1019.80 1019.86 1020.03 1020.33 1020.59 1020.75 1020.94 1021.49 1022.57 1022.92 1022.97 1022.93 1022.78 1022.72 1022.60 1022.44 1022.19 1022.34 1022.36 1022.30 1022.31 1022.28 1022.23 1022.13 1021.99 1021.95 1021.87 1021.71
1014.21 1014.73 1015.22 1015.63 1016.13 1016.58 1017.24 1017.65 1017.91 1018.37 1018.87 1019.20 1019.40 1019.66 1019.88 1019.93 1020.13 1020.05 1020.05 1020.57 1020.96 1021.07 1021.25 1022.04 1022.93 1023.13 1023.29 1023.27 1023.12 1022.91 1022.80 1022.66 1022.28 1022.21 1022.27 1022.26 1022.01 1022.07 1022.15 1022.26 1022.24 1022.21 1022.13
1013.81 1014.13 1014.37 1014.90 1015.56 1016.06 1016.67 1017.11 1017.79 1018.30 1018.71 1018.97 1019.19 1019.45 1019.70 1020.02 1020.10 1020.17 1020.25 1020.33 1020.67 1021.32 1021.84 1022.31 1022.98 1023.41 1023.51 1023.70 1023.71 1023.78 1023.53 1023.33 1023.19 1022.80 1022.64 1022.55 1022.36 1022.23 1022.17 1022.20 1022.11 1022.17 1022.13
1013.11 1013.45 1014.38 1014.67 1015.08 1015.55 1016.00 1016.50 1017.11 1017.97 1018.57 1018.98 1019.18 1019.27 1019.55 1019.60 1019.87 1019.85 1019.98 1020.55 1020.96 1021.56 1022.23 1022.78 1023.38 1023.62 1023.81 1023.92 1024.07 1024.13 1024.05 1023.88 1023.71 1023.63 1023.39 1023.18 1022.89 1022.75 1022.67 1022.47 1022.29 1022.13 1022.01
1012.84 1013.16 1013.66 1014.06 1014.42 1014.82 1015.24 1015.89 1016.53 1017.32 1018.21 1018.75 1019.23 1019.28 1019.39 1019.64 1019.82 1020.11 1020.12 1020.02 1020.15 1021.07 1021.97 1022.60 1023.15 1023.56 1023.67 1023.87 1024.03 1024.15 1024.36 1024.43 1024.31 1023.96 1023.80 1023.56 1023.34 1023.37 1023.18 1022.81 1022.47 1022.19 1022.04
1012.44 1012.57 1012.71 1013.01 1013.33 1013.77 1014.44 1015.09 1015.77 1016.45 1017.29 1018.18 1018.87 1019.16 1019.31 1019.53 1019.72 1020.07 1020.05 1020.27 1020.34 1020.16 1020.15 1021.03 1022.12 1022.84 1023.19 1023.23 1023.42 1024.01 1024.39 1024.45 1024.52 1024.24 1024.14 1024.00 1023.73 1023.41 1023.06 1022.61 1022.33 1022.13 1021.99
1011.60 1011.74 1012.19 1012.57 1012.93 1013.32 1013.98 1014.61 1015.35 1015.90 1016.49 1017.37 1018.03 1018.95 1019.35 1019.30 1019.49 1019.87 1020.32 1020.28 1020.55 1020.46 1020.53 1020.94 1021.39 1022.02 1022.20 1022.71 1022.84 1023.31 1023.91 1024.21 1024.50 1024.25 1024.13 1024.39 1023.95 1023.68 1023.13 1022.55 1022.20 1022.04 1021.92
1010.85 1010.95 1011.20 1011.77 1012.30 1013.06 1013.63 1014.11 1014.91 1015.67 1016.28 1016.71 1016.92 1015.90 1018.23 1019.12 1019.34 1019.63 1020.05 1020.57 1020.59 1020.80 1020.65 1020.81 1021.29 1021.63 1021.77 1022.13 1022.62 1023.23 1023.99 1024.24 1024.71 1024.45 1024.19 1024.34 1024.23 1024.05 1023.45 1022.82 1022.13 1021.91 1021.83
1010.32 1010.39 1010.83 1011.31 1011.77 1012.43 1013.07 1013.74 1014.47 1015.29 1016.29 1016.56 1017.11 1017.49 1016.31 1017.23 1018.71 1019.28 1019.73 1020.37 1020.79 1020.87 1021.15 1021.17 1021.63 1021.77 1021.88 1022.16 1022.38 1022.64 1023.21 1024.09 1024.44 1024.29 1023.76 1024.09 1024.13 1024.14 1023.95 1022.99 1022.54 1022.10 1021.95
Wind_Speed
3 3 3 3 3 3 3 3 3 4 4 4 4 6 5 5 5 3 3 11 14 12 11 12 12 12 13 13 13 13 12 12 11 12 10 9 10 11 11 11 11 12 9
3 4 4 1 3 4 2 4 4 3 4 4 5 6 7 5 5 4 3 4 14 16 17 16 13 12 11 13 13 13 13 13 13 11 10 11 10 11 12 12 12 12 11
5 4 3 1 1 3 4 4 4 2 3 3 4 5 5 5 4 4 4 3 3 12 13 12 11 10 10 11 13 13 13 12 12 12 11 10 10 12 11 12 13 13 12
5 5 2 2 2 2 2 2 1 2 3 2 2 3 1 4 5 7 5 3 1 3 9 10 10 10 12 11 12 11 10 10 10 10 11 11 11 11 12 12 13 12 13
5 3 2 2 2 2 3 2 2 2 1 2 4 4 3 4 3 3 4 4 4 3 3 4 8 7 9 8 7 8 7 11 11 10 11 11 12 13 13 13 14 14 14
5 4 2 3 2 2 3 2 2 1 2 4 5 4 4 4 4 3 3 4 4 4 3 1 2 2 6 6 1 4 2 4 10 10 9 9 11 13 14 15 15 16 15
3 3 2 3 2 3 2 1 1 2 3 3 4 3 4 4 5 4 3 3 5 4 4 3 2 1 3 12 8 6 5 5 3 2 4 7 9 12 16 17 18 18 18
3 3 3 3 4 4 3 2 0 2 2 1 3 3 3 4 4 5 4 4 6 5 5 5 6 6 5 4 5 6 6 5 4 4 6 8 10 11 14 18 20 21 21
4 4 3 3 4 3 3 1 2 2 3 1 1 4 2 2 1 3 5 4 5 4 4 5 5 5 5 4 5 5 7 7 7 7 7 9 11 12 13 19 22 23 24
5 5 5 4 4 3 4 2 1 2 3 2 2 3 1 4 4 2 3 3 4 4 3 3 4 5 5 3 5 6 7 8 8 9 10 11 11 13 13 12 13 23 25
4 4 6 5 5 4 3 4 3 3 2 2 2 2 3 4 4 4 2 1 3 3 3 3 3 4 3 3 2 3 7 8 9 11 12 13 13 14 16 18 21 24 28
3 5 6 5 5 5 5 3 4 4 3 3 1 1 3 3 2 4 3 2 4 2 3 3 2 2 1 2 4 8 7 8 8 9 10 11 13 14 16 19 26 19 18
3 5 5 5 4 5 5 5 5 5 3 3 1 1 1 2 3 2 4 2 3 1 2 2 1 1 1 1 3 5 7 8 9 9 10 10 12 13 16 19 22 22 6
4 5 6 6 6 6 6 6 3 3 5 4 4 3 1 2 2 3 5 7 3 2 1 3 1 1 2 2 4 3 4 6 7 8 9 9 11 13 14 17 19 23 28
4 6 7 6 6 6 6 6 5 4 3 2 2 3 1 2 2 3 3 7 6 4 4 2 1 2 2 2 4 1 3 7 7 9 9 9 9 11 13 15 17 19 23
6 7 6 6 6 6 6 6 4 4 5 2 2 4 2 0 2 2 3 4 3 5 3 2 4 1 1 2 4 1 4 5 5 6 8 9 10 10 11 14 15 15 16
7 7 8 7 7 7 7 6 6 6 6 4 3 5 3 2 2 2 2 2 3 3 4 1 1 1 2 2 3 4 3 2 2 4 5 7 8 9 11 11 11 12 13
7 9 9 8 7 7 7 7 7 6 7 6 6 5 5 3 3 2 2 3 3 2 4 5 1 1 1 1 1 2 3 3 2 4 5 5 5 5 7 8 9 10 10
8 7 8 9 9 8 8 7 7 8 7 6 6 6 6 6 4 2 3 4 3 3 4 5 3 1 2 2 3 3 4 4 3 8 9 9 7 3 4 5 6 6 6
8 9 10 10 10 9 9 8 7 7 6 6 6 6 7 5 5 5 4 6 5 5 4 4 3 2 2 2 3 2 3 4 4 5 7 8 9 10 10 7 6 7 7
9 10 8 7 9 10 8 10 10 8 7 6 5 6 5 7 8 7 5 5 6 4 4 3 3 1 1 2 2 2 2 2 2 3 2 4 4 5 6 9 8 9 9
6 7 8 10 11 9 13 15 13 9 7 7 6 5 4 7 7 8 6 12 12 8 5 4 3 3 2 3 1 1 1 3 3 2 2 3 3 3 2 2 8 9 9
7 10 11 13 13 12 17 20 20 10 10 8 7 6 5 4 7 6 7 7 9 11 12 8 7 5 4 6 5 2 1 1 2 3 2 2 2 3 2 4 8 9 8
11 10 10 11 9 9 16 18 19 11 10 9 9 7 6 6 7 7 6 6 4 6 7 4 6 7 4 6 5 5 5 2 1 2 1 1 2 2 3 4 9 9 8
8 10 9 11 12 8 16 21 16 10 10 12 11 17 9 8 10 11 7 6 5 1 4 9 5 8 10 11 8 5 2 3 2 2 2 2 2 3 2 4 5 10 10
7 6 8 9 9 8 17 20 15 8 8 6 4 9 19 14 14 13 8 8 7 6 4 5 3 3 6 7 11 3 5 3 2 2 3 1 1 2 5 2 3 4 5
Wind_Direction
229 226 234 233 229 215 195 242 263 241 226 210 217 219 216 206 207 190 199 228 219 185 202 235 233 210 210 212 213 208 204 200 213 206 203 208 211 202 200 197 200 201 191
219 223 250 219 224 220 181 225 233 241 244 220 218 191 227 214 202 178 194 243 212 199 201 212 206 222 214 220 218 217 206 205 209 212 215 210 214 218 208 211 206 205 201
232 243 230 182 216 197 221 210 220 244 255 249 253 205 202 203 181 192 187 218 236 209 210 214 204 210 219 219 220 221 217 212 216 214 215 228 228 217 222 222 220 215 209
216 206 197 207 195 197 220 234 182 222 283 251 287 337 169 188 172 187 187 164 222 173 202 218 230 228 231 224 222 224 222 224 232 231 231 229 230 234 228 227 226 228 225
207 192 193 186 166 102 87 128 76 140 99 79 74 28 22 16 47 95 128 141 170 168 159 206 222 217 231 232 220 228 252 243 220 224 229 235 234 234 235 235 233 227 223
193 182 188 174 136 83 51 44 91 46 118 104 69 48 47 39 36 57 120 123 140 150 150 151 331 277 278 214 263 250 250 257 223 230 243 254 252 244 241 238 236 232 227
236 161 144 134 114 121 121 143 115 97 61 98 107 46 49 57 51 30 56 112 126 132 153 189 137 116 100 99 90 76 59 60 52 323 280 277 273 262 247 237 236 233 229
193 173 165 170 144 114 82 55 159 107 72 43 122 85 47 353 23 25 38 68 75 80 81 83 94 87 81 77 85 63 47 28 13 335 316 305 302 292 267 251 239 232 227
198 173 144 150 140 127 134 96 107 98 130 1 97 131 105 165 82 356 29 44 55 61 76 82 80 76 69 58 45 32 50 38 21 3 342 329 318 311 284 257 245 239 230
187 174 163 148 153 129 130 132 90 106 111 146 23 19 75 145 154 106 38 43 78 66 99 85 88 83 79 59 47 47 44 37 30 23 10 5 1 4 356 358 295 242 232
219 163 161 148 146 148 136 131 86 72 75 125 162 146 68 55 72 124 129 46 50 36 53 99 105 91 70 66 49 16 38 30 25 22 19 18 18 10 1 350 325 285 224
187 173 158 164 150 144 149 137 100 76 70 70 38 120 146 152 183 135 116 122 132 18 40 52 64 79 32 6 35 34 30 24 21 24 23 23 22 15 11 358 356 0 207
193 186 159 168 164 164 151 139 127 131 135 110 43 95 128 145 127 116 115 123 109 51 18 352 306 254 271 330 334 31 25 24 19 18 21 26 27 19 15 15 15 11 208
180 171 173 178 169 163 147 148 135 139 149 140 134 125 103 86 114 148 150 140 79 49 326 223 272 254 264 279 267 336 356 10 24 20 15 25 33 29 20 22 24 33 33
173 179 182 174 175 165 158 155 142 142 140 141 128 126 86 355 76 128 156 165 138 146 228 250 160 238 269 291 290 303 328 326 12 23 22 19 36 40 30 27 30 39 56
181 176 184 175 167 161 161 150 149 150 142 150 128 128 110 36 43 56 127 135 122 135 143 194 230 250 326 309 296 331 286 285 345 8 16 17 19 33 43 37 32 37 51
187 182 187 178 177 172 170 159 157 155 153 162 135 131 130 127 101 89 91 112 132 116 124 263 278 10 18 14 347 345 308 250 304 323 355 13 16 19 25 37 42 41 44
188 191 187 183 181 178 166 166 160 159 163 174 167 142 153 149 132 115 123 152 153 160 129 137 142 54 89 323 276 7 4 28 337 339 344 341 335 7 22 25 27 31 40
192 186 179 183 179 177 171 176 168 164 176 181 176 166 169 161 167 161 146 133 117 103 78 116 128 68 45 15 31 350 16 7 31 35 25 28 25 355 358 357 355 1 3
187 189 193 186 180 176 178 169 162 164 169 177 177 177 170 176 164 153 139 133 122 105 99 103 85 91 80 5 65 60 17 21 17 9 29 43 50 49 46 22 359 341 315
197 196 178 181 177 179 178 171 161 164 164 172 181 175 186 170 179 180 147 139 123 106 113 101 96 95 68 39 66 322 56 336 27 9 11 13 13 18 17 20 23 12 352
190 186 186 184 184 188 183 172 165 159 163 168 180 184 180 171 165 179 172 166 162 141 144 139 150 145 182 165 167 101 61 35 348 14 44 338 32 18 344 3 8 5 359
189 197 195 192 196 189 176 171 170 164 164 169 174 167 170 170 163 169 163 165 178 180 171 157 154 177 175 182 143 93 75 106 233 297 74 330 2 4 319 327 339 351 352
200 201 203 208 197 209 180 173 173 168 164 161 162 173 185 176 172 158 152 128 133 147 145 146 150 170 164 154 137 150 165 147 294 295 86 71 342 285 316 293 303 321 330
201 205 200 198 200 200 181 175 166 167 172 182 186 161 179 184 189 165 148 146 136 144 103 115 146 161 156 156 153 122 92 81 331 292 327 122 298 296 305 295 307 319 326
215 197 201 198 198 183 176 174 167 160 169 176 229 244 172 169 176 169 156 160 160 187 154 104 91 125 155 177 175 168 150 140 195 327 240 149 343 1 334 294 305 308 323